Weather History for KDUG - June, 2013

Change the Weather History Date:

Sunday, June 23, 2013

  Actual Average Record
Temperature  
Mean Temperature 81 °F 80 °F  
Max Temperature 99 °F 97 °F 107 °F (1953)
Min Temperature 63 °F 63 °F 50 °F (1951)
Degree Days  
Heating Degree Days 0 0  
Month to date heating degree days 0 0  
Since 1 June heating degree days 0 0  
Since 1 July heating degree days 2559 2522  
Cooling Degree Days 16 15  
Month to date cooling degree days 377 287  
Year to date cooling degree days 577 488  
Since 1 June cooling degree days 377 287  
Growing Degree Days 30 (Base 50)    
Moisture  
Dew Point 30 °F    
Average Humidity 18    
Maximum Humidity 26    
Minimum Humidity 9    
Precipitation  
Precipitation 0.00 in 0.03 in 0.54 in (1965)
Month to date precipitation 0.10 0.36  
Year to date precipitation 0.97 2.76  
Snow  
Snow 0.00 in - - ()
Month to date snowfall 0.0  
Snow Depth 0.00 in    
Sea Level Pressure  
Sea Level Pressure 29.74 in    
Wind  
Wind Speed 12 mph (SSW)    
Max Wind Speed 26 mph    
Max Gust Speed 35 mph    
Visibility 10 miles    
Events      
T = Trace of Precipitation, MM = Missing Value Source: NWS Daily Summary

Daily Weather History Graph

Daily Weather History Graph

Search for Another Location

Airport or City:

Trip Planner

Search our weather history database for the weather conditions in past years. The results will help you decide how hot, cold, wet, or windy it might be!

Date:

Astronomy

Jun. 23, 2013 Rise Set
Actual Time 5:14 AM MST 7:26 PM MST
Civil Twilight 4:46 AM MST 7:54 PM MST
Nautical Twilight 4:12 AM MST 8:28 PM MST
Astronomical Twilight 3:35 AM MST 9:05 PM MST
Moon 7:47 PM MST (6/23) 5:31 AM MST (6/23)
Length of Visible Light 15h 08m
Length of Day
14h 11m
Full, 100% of the Moon is Illuminated
Jun 23
Full
Jun 29
Last Quarter
Jul 8
New
Jul 15
First Quarter
Jul 22
Full

Hourly Weather History & Observations

Time (MST) Temp. Dew Point Humidity Pressure Visibility Wind Dir Wind Speed Gust Speed Precip Events Conditions
12:56 AM 71.1 °F 21.9 °F 16% 29.75 in 10.0 mi Calm Calm - N/A   Clear
1:56 AM 68.0 °F 21.9 °F 17% 29.76 in 10.0 mi SE 4.6 mph - N/A   Clear
2:56 AM 68.0 °F 24.1 °F 19% 29.76 in 10.0 mi ENE 4.6 mph - N/A   Clear
3:56 AM 64.9 °F 24.1 °F 21% 29.77 in 10.0 mi ESE 5.8 mph - N/A   Clear
4:56 AM 64.9 °F 27.0 °F 24% 29.79 in 10.0 mi SSE 3.5 mph - N/A   Clear
5:56 AM 64.0 °F 28.0 °F 26% 29.81 in 10.0 mi East 3.5 mph - N/A   Scattered Clouds
6:56 AM 73.9 °F 32.0 °F 21% 29.80 in 8.0 mi SE 5.8 mph - N/A   Partly Cloudy
7:56 AM 79.0 °F 35.1 °F 20% 29.81 in 8.0 mi SE 5.8 mph - N/A   Clear
8:56 AM 82.9 °F 37.9 °F 20% 29.80 in 10.0 mi SSE 9.2 mph - N/A   Clear
9:56 AM 87.1 °F 35.1 °F 16% 29.79 in 10.0 mi Variable 6.9 mph - N/A   Clear
10:56 AM 93.0 °F 27.0 °F 9% 29.75 in 5.0 mi SW 13.8 mph 21.9 mph N/A   Haze
11:56 AM 96.1 °F 28.9 °F 9% 29.74 in 10.0 mi WSW 25.3 mph 32.2 mph N/A   Clear
12:56 PM 95.0 °F 30.9 °F 10% 29.73 in 10.0 mi SSW 25.3 mph 32.2 mph N/A   Clear
1:35 PM 96.8 °F 30.2 °F 10% 29.95 in 10.0 mi WSW 25.3 mph 33.4 mph N/A   Clear
1:56 PM 96.1 °F 30.9 °F 10% 29.71 in 10.0 mi WSW 20.7 mph 34.5 mph N/A   Clear
2:56 PM 97.0 °F 28.9 °F 9% 29.68 in 10.0 mi WSW 23.0 mph 33.4 mph N/A   Clear
3:57 PM 97.0 °F 28.9 °F 9% 29.67 in - WSW 21.9 mph 34.5 mph N/A   Unknown
4:56 PM 95.0 °F 28.0 °F 9% 29.66 in 10.0 mi WSW 19.6 mph 28.8 mph N/A   Clear
5:56 PM 93.9 °F 32.0 °F 11% 29.66 in 10.0 mi West 23.0 mph 27.6 mph N/A   Clear
6:56 PM 89.1 °F 34.0 °F 14% 29.67 in 10.0 mi West 17.3 mph 25.3 mph N/A   Clear
7:56 PM 86.0 °F 33.1 °F 15% 29.67 in 10.0 mi West 16.1 mph - N/A   Clear
8:56 PM 81.0 °F 33.1 °F 18% 29.70 in 10.0 mi WSW 8.1 mph - N/A   Clear
9:56 PM 78.1 °F 33.1 °F 19% 29.72 in 10.0 mi WSW 3.5 mph - N/A   Clear
10:56 PM 75.9 °F 32.0 °F 20% 29.72 in 10.0 mi WSW 8.1 mph - N/A   Clear
11:56 PM 73.9 °F 33.1 °F 22% 29.72 in 10.0 mi SSE 6.9 mph - N/A   Clear